Weather History for Ogallala, NE

Change the Weather History Date:

Tuesday, January 21, 2014

  Actual Average Record
Temperature  
Mean Temperature 33 °F -  
Max Temperature 58 °F 36 °F 72 °F (1950)
Min Temperature 8 °F 11 °F -22 °F (1966)
Degree Days  
Heating Degree Days 32    
Moisture  
Dew Point 12 °F    
Average Humidity 54    
Maximum Humidity 89    
Minimum Humidity 12    
Precipitation  
Precipitation 0.00 in - - ()
Sea Level Pressure  
Sea Level Pressure 30.14 in    
Wind  
Wind Speed 8 mph (WNW)    
Max Wind Speed 33 mph    
Max Gust Speed 46 mph    
Visibility 10 miles    
Events      
Averages and records for this station are not official NWS values.
T = Trace of Precipitation, MM = Missing Value Source: NWS Daily Summary

Daily Weather History Graph

Daily Weather History Graph

Search for Another Location

Airport:

Trip Planner

Search our weather history database for the weather conditions in past years. The results will help you decide how hot, cold, wet, or windy it might be!

Date:

Astronomy

Jan. 21, 2014 Rise Set
Actual Time 7:06 AM MST 4:50 PM MST
Civil Twilight 6:36 AM MST 5:20 PM MST
Nautical Twilight 6:03 AM MST 5:53 PM MST
Astronomical Twilight 5:30 AM MST 6:26 PM MST
Moon 10:28 PM MST (1/21) 9:34 AM MST (1/21)
Length of Visible Light 10h 43m
Length of Day
9h 43m
Waning Gibbous, 74% of the Moon is Illuminated
Jan 21
Waning Gibbous
Jan 23
Last Quarter
Jan 30
New
Feb 6
First Quarter
Feb 14
Full

Hourly Weather History & Observations

Time (MST) Temp. Windchill Dew Point Humidity Pressure Visibility Wind Dir Wind Speed Gust Speed Precip Events Conditions
12:15 AM 12.9 °F 3.8 °F 8.8 °F 84% 30.36 in 10.0 mi WSW 5.8 mph - N/A   Clear
12:35 AM 14.7 °F - 11.1 °F 86% 30.36 in 10.0 mi Calm Calm - N/A   Clear
12:55 AM 12.4 °F - 9.0 °F 86% 30.35 in 10.0 mi Calm Calm - N/A   Clear
1:15 AM 11.3 °F - 7.9 °F 86% 30.34 in 10.0 mi Calm Calm - N/A   Clear
1:35 AM 10.9 °F - 7.5 °F 86% 30.34 in 10.0 mi Calm Calm - N/A   Clear
1:55 AM 12.7 °F - 9.1 °F 86% 30.34 in 10.0 mi Calm Calm - N/A   Clear
2:15 AM 12.2 °F - 9.5 °F 89% 30.33 in 10.0 mi Calm Calm - N/A   Clear
2:35 AM 12.2 °F - 9.1 °F 88% 30.32 in 10.0 mi Calm Calm - N/A   Clear
2:55 AM 10.4 °F - 6.4 °F 84% 30.32 in 10.0 mi Calm Calm - N/A   Clear
3:15 AM 10.4 °F - 6.8 °F 85% 30.31 in 10.0 mi Calm Calm - N/A   Clear
3:35 AM 9.5 °F - 6.4 °F 87% 30.30 in 10.0 mi Calm Calm - N/A   Clear
3:55 AM 8.4 °F - 4.3 °F 83% 30.29 in 10.0 mi Calm Calm - N/A   Clear
4:15 AM 8.4 °F - 4.8 °F 85% 30.28 in 10.0 mi Calm Calm - N/A   Clear
4:35 AM 9.1 °F - 5.5 °F 85% 30.26 in 10.0 mi Calm Calm - N/A   Clear
4:55 AM 11.1 °F - 8.4 °F 89% 30.25 in 10.0 mi Calm Calm - N/A   Clear
5:15 AM 12.6 °F - 9.7 °F 88% 30.24 in 10.0 mi Calm Calm - N/A   Clear
5:35 AM 13.1 °F - 10.4 °F 89% 30.23 in 10.0 mi Calm Calm - N/A   Clear
5:55 AM 14.4 °F 4.3 °F 11.3 °F 88% 30.22 in 10.0 mi SW 6.9 mph - N/A   Clear
6:15 AM 16.5 °F 6.9 °F 12.2 °F 83% 30.21 in 10.0 mi SW 6.9 mph - N/A   Clear
6:35 AM 15.8 °F 5.1 °F 11.5 °F 83% 30.20 in 10.0 mi WSW 8.1 mph - N/A   Clear
6:55 AM 15.6 °F 7.0 °F 11.3 °F 83% 30.19 in 10.0 mi WSW 5.8 mph - N/A   Clear
7:15 AM 14.9 °F 6.1 °F 10.8 °F 84% 30.19 in 10.0 mi WSW 5.8 mph - N/A   Clear
7:35 AM 16.2 °F 10.6 °F 11.8 °F 83% 30.18 in 10.0 mi WSW 3.5 mph - N/A   Clear
7:55 AM 17.1 °F 7.6 °F 12.6 °F 82% 30.16 in 10.0 mi SW 6.9 mph - N/A   Clear
8:15 AM 18.3 °F 9.1 °F 13.3 °F 81% 30.15 in 10.0 mi SW 6.9 mph - N/A   Clear
8:35 AM 20.3 °F 10.6 °F 14.5 °F 78% 30.14 in 10.0 mi WSW 8.1 mph - N/A   Clear
8:55 AM 21.9 °F 13.4 °F 14.9 °F 74% 30.14 in 10.0 mi WSW 6.9 mph - N/A   Clear
9:15 AM 24.3 °F 15.4 °F 16.0 °F 71% 30.13 in 10.0 mi WSW 8.1 mph - N/A   Clear
9:35 AM 25.9 °F 19.2 °F 16.9 °F 69% 30.12 in 10.0 mi WSW 5.8 mph - N/A   Clear
9:55 AM 29.8 °F 20.9 °F 18.1 °F 62% 30.11 in 10.0 mi WSW 10.4 mph - N/A   Clear
10:15 AM 32.7 °F 24.5 °F 19.4 °F 58% 30.11 in 10.0 mi WSW 10.4 mph - N/A   Clear
10:35 AM 36.9 °F 30.7 °F 20.7 °F 52% 30.09 in 10.0 mi West 8.1 mph - N/A   Clear
10:55 AM 43.2 °F 39.7 °F 20.8 °F 41% 30.07 in 10.0 mi West 5.8 mph - N/A   Clear
11:15 AM 51.3 °F - 12.0 °F 21% 30.05 in 10.0 mi WNW 25.3 mph 32.2 mph N/A   Clear
11:35 AM 52.7 °F - 10.9 °F 19% 30.04 in 10.0 mi WNW 24.2 mph 29.9 mph N/A   Clear
11:55 AM 54.3 °F - 9.7 °F 17% 30.04 in 10.0 mi NW 19.6 mph - N/A   Clear
12:15 PM 55.4 °F - 9.5 °F 16% 30.02 in 10.0 mi WNW 21.9 mph 25.3 mph N/A   Clear
12:35 PM 57.4 °F - 4.3 °F 12% 30.01 in 10.0 mi NNW 31.1 mph 38.0 mph N/A   Clear
12:55 PM 57.4 °F - 4.8 °F 12% 30.00 in 10.0 mi NW 32.2 mph 39.1 mph N/A   Clear
1:15 PM 58.1 °F - 5.7 °F 12% 30.00 in 10.0 mi NW 29.9 mph 34.5 mph N/A   Clear
1:35 PM 58.1 °F - 6.1 °F 13% 29.99 in 10.0 mi NW 26.5 mph 38.0 mph N/A   Clear
1:55 PM 58.3 °F - 6.8 °F 13% 29.99 in 10.0 mi NW 32.2 mph 42.6 mph N/A   Clear
2:15 PM 58.3 °F - 7.0 °F 13% 29.99 in 10.0 mi NW 32.2 mph 40.3 mph N/A   Clear
2:35 PM 58.1 °F - 7.5 °F 13% 29.99 in 10.0 mi NW 26.5 mph 40.3 mph N/A   Clear
2:55 PM 57.2 °F - 7.3 °F 14% 30.00 in 10.0 mi NNW 31.1 mph 43.7 mph N/A   Clear
3:15 PM 56.3 °F - 7.5 °F 14% 30.01 in 10.0 mi NNW 25.3 mph 46.0 mph N/A   Clear
3:35 PM 55.4 °F - 5.9 °F 14% 30.01 in 10.0 mi NNW 33.4 mph 43.7 mph N/A   Clear
3:55 PM 53.8 °F - 5.5 °F 14% 30.02 in 10.0 mi NNW 28.8 mph 38.0 mph N/A   Clear
4:15 PM 52.0 °F - 4.1 °F 14% 30.02 in 10.0 mi NNW 28.8 mph 42.6 mph N/A   Clear
4:35 PM 50.5 °F - 5.7 °F 16% 30.03 in 10.0 mi NNW 28.8 mph 35.7 mph N/A   Clear
4:55 PM 48.7 °F - 6.8 °F 18% 30.04 in 10.0 mi NNW 21.9 mph 28.8 mph N/A   Clear
5:15 PM 47.3 °F - 7.7 °F 20% 30.05 in 10.0 mi NNW 17.3 mph 26.5 mph N/A   Clear
5:35 PM 45.7 °F 40.2 °F 8.4 °F 22% 30.05 in 10.0 mi NNW 11.5 mph - N/A   Scattered Clouds
5:55 PM 42.3 °F 36.8 °F 8.6 °F 25% 30.06 in 10.0 mi NNW 9.2 mph - N/A   Scattered Clouds
6:15 PM 40.5 °F 33.6 °F 9.9 °F 29% 30.07 in 10.0 mi NNW 11.5 mph - N/A   Clear
6:35 PM 42.3 °F 35.9 °F 11.5 °F 29% 30.08 in 10.0 mi NNW 11.5 mph - N/A   Scattered Clouds
6:55 PM 38.3 °F 31.9 °F 11.3 °F 33% 30.08 in 10.0 mi NW 9.2 mph - N/A   Scattered Clouds
7:15 PM 41.4 °F 35.2 °F 14.0 °F 33% 30.10 in 10.0 mi NW 10.4 mph - N/A   Overcast
7:35 PM 39.2 °F 32.5 °F 15.1 °F 37% 30.09 in 10.0 mi NNW 10.4 mph - N/A   Mostly Cloudy
7:55 PM 39.7 °F 32.7 °F 16.7 °F 39% 30.09 in 10.0 mi North 11.5 mph - N/A   Mostly Cloudy
8:15 PM 36.9 °F 30.7 °F 17.6 °F 46% 30.09 in 10.0 mi North 8.1 mph - N/A   Mostly Cloudy
8:35 PM 35.8 °F 33.0 °F 17.8 °F 48% 30.11 in 10.0 mi WSW 3.5 mph - N/A   Overcast
8:55 PM 36.5 °F - 19.4 °F 50% 30.10 in 10.0 mi Calm Calm - N/A   Overcast
9:15 PM 36.5 °F 31.8 °F 21.2 °F 54% 30.11 in 10.0 mi North 5.8 mph - N/A   Overcast
9:35 PM 37.9 °F 32.7 °F 21.7 °F 52% 30.10 in 10.0 mi North 6.9 mph - N/A   Overcast
9:55 PM 34.9 °F - 19.9 °F 55% 30.10 in 10.0 mi Calm Calm - N/A   Overcast
10:15 PM 32.4 °F 29.1 °F 18.1 °F 56% 30.11 in 10.0 mi West 3.5 mph - N/A   Mostly Cloudy
10:35 PM 32.2 °F 26.7 °F 20.3 °F 62% 30.11 in 10.0 mi NNW 5.8 mph - N/A   Scattered Clouds
10:55 PM 32.0 °F - 19.9 °F 61% 30.11 in 10.0 mi Calm Calm - N/A   Clear
11:15 PM 28.8 °F 22.6 °F 17.8 °F 64% 30.11 in 10.0 mi WNW 5.8 mph - N/A   Clear
11:35 PM 27.0 °F 21.6 °F 18.1 °F 69% 30.11 in 10.0 mi NW 4.6 mph - N/A   Clear
11:55 PM 24.3 °F 19.9 °F 16.2 °F 71% 30.11 in 10.0 mi West 3.5 mph - N/A   Clear